STARLINK-30983, 58514

Orbit data source: Space-Track

STARLINK-30983, 58514 is a payload satellite owned by SpaceX/Seattle (US) in LEO that was launched on Thu, 07 Dec 2023 UTC via an FALCON 9 launch vehicle from the Air Force Eastern Test Range (AFETR). Payload-class satellites include a variety of spacecraft equipped with specific instruments for various scientific and technological missions. These include communications satellites like Starlink; space stations such as the ISS; scientific satellites like the Hubble; Earth observation satellites from companies like Planet Labs, Umbra, and HawkEye 360; GPS; miniature CubeSats for education and research; and military/defense satellites.

Loading next visibility...
Identifier
58514, 2023-191G
Orbit
LEO
Country
Flag of USUS
Related business
Manufacturer
SpaceX/Seattle
Mission
Operational Commercial Communications
Bus & Motor
STARLINK V2M, Unknown motor
Mass
730 kg wet, ~700 kg dry
Launch date (UTC)
2023-12-07 (3 years ago)
Launch vehicle
FALCON 9
Launch site
Air Force Eastern Test Range (AFETR)
Object type
Payload
Rocket body
Debris
Shape & HBR
Box + 2 Pan, 17.7 m
Radar Cross Section
33.884 m², Large (>1 m²)

Expand to show TLE details & history
Last TLE update: 3 days ago

TLE from 3 days ago
0 STARLINK-30983
1 58514U 23191G   26170.51363642  .00006146  00000-0  23252-3 0  9999
2 58514  42.9985 248.4154 0001467 274.1699  85.8985 15.27602066140694
Epoch: 2026-06-19T12:19Z
TLE epoch observation values (Epoch: 2026-06-19T12:19:38.186Z)
Latitude
-0.00002°
Longitude
155.76474°
Altitude
482.686 km
Speed
7.626 km/s
True Right ascension
16h 33m 39s
True Declination
0° 00' 00"
Sunlit
Object was in full shadow at epoch
Visualization orbit readout
Latitude
Unknown
Longitude
Unknown
Altitude
Unknown
Speed
Unknown
Apparent Right ascension
Unknown
Apparent Declination
Unknown
Sunlit
N/A
Visualization observer readout
Local Sidereal Time
23:20:32
Azimuth
Unknown
Elevation
Unknown
Doppler factor
Unknown
Orbital elements
Apogee altitude
485.935 km
Perigee altitude
483.922 km
Semi-major axis
6,863.065 km
Eccentricity
0.00015
Inclination
42.9985°
RAAN
248.4154°
Arg. of periapsis
274.1699°
True anomaly
85.91527°
Mean anomaly
85.8985°
Eccentric anomaly
85.90688°
Mean motion
3.81738 °/min
Orbital period
94.31 mins
BSTAR
0.00023252
Loading maneuver chart data...
Computing Atmospheric mass density...
Loading historical data...
Loading historical data...
Loading historical data...
Loading historical data...
Loading historical data...
Loading historical data...
Loading historical data...

Documentation

Showing up to 5 results
|